Regional Weather Roundup
Issued by NWS

Home | Current Version | Previous Version | Text Only | Print | Product List | Glossary Off
Versions: 1 2 3 4 5 6 7 8 9 10 11 12 13 14 15 16 17 18 19 20 21 22 23 24 25 26 27 28 29 30 31 32 33 34 35 36 37 38 39 40 41 42 43 44 45 46 47 48 49 50

000
ASUS43 KMKX 292011
RWRWI

WISCONSIN REGIONAL WEATHER ROUNDUP
NATIONAL WEATHER SERVICE MILWAUKEE/SULLIVAN WI
300 PM CDT WED JUL 29 2015

NOTE: "FAIR" INDICATES FEW OR NO CLOUDS BELOW 12,000 FEET WITH NO
SIGNIFICANT WEATHER AND/OR OBSTRUCTIONS TO VISIBILITY.

WIZ001-002-006>008-014>016-023>028-292100-
NORTHWEST WISCONSIN

CITY           SKY/WX    TMP DP  RH WIND       PRES   REMARKS
SUPERIOR ARPT  CLOUDY    72  59  63 SW10      29.79R
ASHLAND        CLOUDY    71  58  63 SW9G17    29.81R
HAYWARD        CLOUDY    74  54  49 W14G24    29.86S
SIREN          MOSUNNY   79  51  38 W23G32    29.87S
CUMBERLAND     MOSUNNY   77  50  38 W23G33    29.90S
RICE LAKE      MOSUNNY   77  55  47 W20G31    29.91S
CHETEK         MOSUNNY  N/A N/A N/A W17G26    29.90S
LADYSMITH      PTSUNNY   78  55  46 W23G30    29.90S
EAU CLAIRE     SUNNY     82  54  37 W20G31    29.91S HX  81
MENOMONIE      SUNNY     81  52  36 W21G28    29.92F HX  80
NEW RICHMOND   SUNNY     80  52  37 W24G32    29.93S
OSCEOLA        PTSUNNY   79  55  43 W21G31    29.94S HX  80
$$

WIZ003>005-009-010-017-018-292100-
NORTH CENTRAL WISCONSIN

CITY           SKY/WX    TMP DP  RH WIND       PRES   REMARKS
MANITOWISH WTR CLOUDY    72  55  54 W21G31    29.86R
ARBOR VITAE    PTSUNNY   77  57  50 W10G26    29.86R
WOODRUFF       PTSUNNY   77  57  50 W10G26    29.86R
RHINELANDER    PTSUNNY   79  53  40 W25G36    29.87R
EAGLE RIVER    PTSUNNY   76  49  39 W15G32    29.84S
LAND O LAKES   CLOUDY    74  51  44 W15G28    29.85R
PHILLIPS       PTSUNNY   76  56  50 W13G22    29.87R
TOMAHAWK       MOSUNNY   75  53  46 W16G29    29.88S
MEDFORD        SUNNY     77  54  45 W22G30    29.90S
MERRILL        NOT AVBL
$$

WIZ029-030-035-036-043>047-292100-
CENTRAL WISCONSIN

CITY           SKY/WX    TMP DP  RH WIND       PRES   REMARKS
WAUSAU         SUNNY     82  50  32 W25G38    29.87S HX  81
MOSINEE        SUNNY     81  48  32 W26G37    29.90S HX  80
MARSHFIELD     SUNNY     81  49  32 W24G37    29.91S HX  80
STEVENS POINT  SUNNY     80  49  33 W23G38    29.90S
WAUPACA        SUNNY     86  45  23 SW26G35   29.89F HX  83
WAUTOMA        SUNNY     87  47  24 W20G30    29.92S HX  84
WISC RAPIDS    SUNNY     84  46  26 W20G37    29.92F HX  82
CAMP DOUGLAS   MOSUNNY   82  54  36 W24G33    29.94F HX  81
$$

WIZ011>013-019>022-031-037>040-048>050-292100-
NORTHEAST WISCONSIN

CITY           SKY/WX    TMP DP  RH WIND       PRES   REMARKS
ANTIGO         SUNNY     80  53  38 W20G30    29.87S HX  80
SHAWANO        SUNNY     85  49  29 W18G25    29.85F HX  83
OCONTO         SUNNY     85  52  31 W17G30    29.82F HX  83
STURGEON BAY   SUNNY     82  52  34 W20G30    29.85S HX  81
GREEN BAY      SUNNY     84  52  33 W22G29    29.86F HX  82
MANITOWOC      SUNNY     85  50  29 MISG      29.88S HX  83
APPLETON       MOSUNNY   82  46  28 W22G28    29.90S HX  81
CLINTONVILLE   SUNNY     84  45  24 W21G32    29.86S HX  82
OSHKOSH        SUNNY     83  51  33 W10G24    29.90F HX  81
$$

WIZ032>034-041-042-053>061-292100-
SOUTHWEST WISCONSIN

CITY           SKY/WX    TMP DP  RH WIND       PRES   REMARKS
LA CROSSE      SUNNY     84  52  33 W24G35    29.96S HX  82
SPARTA         SUNNY     83  47  28 W22G32    29.96F HX  81
VIROQUA        SUNNY     80  51  36 W16G25    30.01S
BOSCOBEL       SUNNY     87  55  33 NW10      30.00F HX  85
PRAIRIE DU CHI SUNNY     84  47  27 W18G28    30.01F HX  81
PLATTEVILLE    SUNNY     82  55  40 W16G22    30.03F HX  81
$$

WIZ056-057-062-063-064-067-068-292100-
SOUTH CENTRAL WISCONSIN

CITY           SKY/WX    TMP DP  RH WIND       PRES   REMARKS
REEDSBURG      SUNNY     85  52  32 W18G26    29.97S HX  83
BARABOO/DELLS  SUNNY     85  45  24 W18G28    29.96F HX  82
LONE ROCK      SUNNY     85  52  32 W16       29.99F HX  83
MINERAL POINT  MOSUNNY   82  48  30 W18       30.03F HX  81
MADISON        MOSUNNY   83  50  31 W14G22    29.97F HX  81
MIDDLETON      SUNNY     84  43  23 W22G29    29.99F HX  82
WATERTOWN      SUNNY     82  55  39 W16       29.96F HX  81
MONROE         SUNNY     81  50  34 W20       30.02F HX  80
JANESVILLE     SUNNY     86  48  26 W13G20    30.00S HX  83
$$

WIZ051-052-058>065-066-070>072-292100-
SOUTHEAST WISCONSIN

CITY           SKY/WX    TMP DP  RH WIND       PRES   REMARKS
MILWAUKEE      MOSUNNY   86  50  28 W15       29.94F HX  84
WAUKESHA       SUNNY     82  50  32 W22       29.98S HX  81
MILWAUKEE/TIMM SUNNY     84  46  26 W21       29.96S HX  82
RACINE         SUNNY     85  49  28 W12G26    29.97F HX  83
BURLINGTON     SUNNY     82  49  31 W16       29.98F HX  81
KENOSHA        SUNNY     83  53  35 W18G30    29.97F HX  82
FOND DU LAC    SUNNY     85  49  28 W15G28    29.92F HX  83
SHEBOYGAN      SUNNY     84  52  33 W20G29    29.90F HX  82
WEST BEND      SUNNY     82  45  26 W20G29    29.94F HX  80
JUNEAU         SUNNY     81  52  36 W20G28    29.96F HX  80
$$

LSZ147-162-292100-
LAKE SUPERIOR

STATION/POSITION TIME  TEMP    WIND        PRES    WAVE
                       AIR SEA DIR/SP/G            HT/PER
                 (UTC) (F)     (DEG/KT/KT) (MB)    (FT/S)
W MID LAKE BUOY  1950   63 56  230/ 21/ 25 1006.1R   7/ 7
DEVILS ISLAND    2000   68     240/ 25/ 29 1007.4R
PORT WING        1900   71     230/ 12/ 21 1008.8R
SAXON HARBOR     1905   73                 1009.1R
$$

LMZ867-665-643>646-292100-
LAKE MICHIGAN

STATION/POSITION TIME  TEMP    WIND        PRES    WAVE
                       AIR SEA DIR/SP/G            HT/PER
                 (UTC) (F)     (DEG/KT/KT) (MB)    (FT/S)
CHAMBERS ISLAND  1900   80     200/  9/ 15 1009.1S
S GREEN BAY BUOY 1930   75 70  250/ 17/ 23 1011.6
N MID LAKE BUOY  1950   72 70  210/ 17/ 19 1008.2F   3/ 4
NORTHPORT PIER   1900   82     240/  7/ 18 1008.8F
SISTER BAY       1914   83     280/ 18/ 20   N/A
ALGOMA LAKESHORE 1912          270/ 13/ 23   N/A
KEWAUNEE LAKESHO 1918   83                   N/A
SHEBOYGAN LAKESH 2000   83     260/ 19/ 24 1012.1F
PORT WASHINGTON  1900   86     250/ 11/ 20 1013.9
ATWATER BUOY     2000   78     260/ 14/ 16 1015.0F
MILWAUKEE LAKESH 1900   82     280/ 18/ 22   N/A
KENOSHA   LAKESH 2000   83     280/ 14/ 22 1013.9F
$$

TC  - TEMPERATURE IN CELSIUS
VSB - VISIBILITY IN STATUTE MILES
WCI - WIND CHILL INDEX
HX  - HEAT INDEX



USA.gov is the U.S. government's official web portal to all federal, state and local government web resources and services.